Flag for Russia Past Weather in Petropavlovsk-Kamchatsky, Russia — Yesterday and Last 2 Weeks

Now
34 °F

Clear.


Feels Like: 31 °F
Forecast: 15 / 25 °F
Wind: 3 mph from Southwest

Location: Petropavlovsk-Kamchatskij

Current Time: Feb 23, 2017 at 3:01:57 pm

Latest Report: Feb 23, 2017 at 2:00 pm


Visibility: N/A

Pressure: 29.09 "Hg

Humidity: 48%

Dew Point: 16 °F

Location of Petropavlovsk-KamchatskyLocation

Past Weather in Petropavlovsk-Kamchatsky — Graph

°F

Petropavlovsk-Kamchatsky Temperature Yesterday

Maximum temperature yesterday: 32 °F (at 7:00 pm)
Minimum temperature yesterday: 28 °F (at 2:00 am)
Average temperature yesterday: 30 °F

High & Low Weather Summary for the Past Weeks

 TemperatureHumidityPressure
High41 °F (Feb 8, 3:00 pm)93% (Feb 17, 8:30 pm)29.83 "Hg (Feb 17, 8:30 pm)
Low-2 °F (Feb 15, 1:00 am)30% (Feb 14, 4:30 pm)28.85 "Hg (Feb 22, 2:30 pm)
Average27 °F64%29.45 "Hg
* Reported Feb 8 1:00 pm — Feb 23 1:30 pm, Petropavlovsk-Kamchatsky, Weather by CustomWeather, © 2017

Note: Actual official high and low records may vary slightly from our data, if they occured in-between our weather recording intervals... More about our weather records

Advertising

Petropavlovsk-Kamchatsky Weather History for the Previous 24 Hours

Scroll right to see more
 ConditionsComfort  
Time TempWeatherWind HumidityBarometerVisibility
1:30 pm
Thu, Feb 23
32 °FClear.6 mph51%29.09 "HgN/A
1:00 pm30 °FClear.8 mph55%29.12 "HgN/A
12:30 pm30 °FClear.3 mph55%29.12 "HgN/A
12:00 pm30 °FClear.15 mph51%29.12 "HgN/A
11:30 am28 °FClear.10 mph55%29.12 "HgN/A
11:00 am28 °FClear.1 mph51%29.12 "HgN/A
10:30 am27 °FClear.1 mph54%29.12 "HgN/A
10:00 am25 °FClear.3 mph59%29.12 "HgN/A
9:30 am19 °FClear.3 mph68%29.12 "HgN/A
9:00 am21 °FClear.3 mph63%29.12 "HgN/A
8:30 am21 °FClear.6 mph63%29.09 "HgN/A
8:00 am19 °FClear.6 mph68%29.09 "HgN/A
7:30 am21 °FClear.3 mph63%29.09 "HgN/A
7:00 am23 °FClear.8 mph63%29.09 "HgN/A
6:00 am25 °FClear.10 mph59%29.09 "HgN/A
5:00 am25 °FClear.8 mph63%29.09 "HgN/A
4:00 am28 °FLow level haze.22 mph55%29.06 "HgN/A
3:00 am30 °FLow level haze.22 mph47%29.06 "HgN/A
2:00 am27 °FLow level haze.17 mph59%29.06 "HgN/A
1:00 am30 °FLow level haze.24 mph51%29.06 "HgN/A
12:00 am30 °FLow level haze.24 mph47%29.03 "HgN/A
11:00 pm
Wed, Feb 22
30 °FLow level haze.29 mph51%29.00 "HgN/A
10:00 pm32 °FLow level haze.24 mph47%29.00 "HgN/A
9:00 pm32 °FLow level haze.26 mph47%29.00 "HgN/A
8:00 pm32 °FLow level haze.26 mph51%28.97 "HgN/A
7:00 pm32 °FLow level haze.24 mph51%28.94 "HgN/A
6:30 pm30 °FLow level haze.26 mph55%28.94 "HgN/A
6:00 pm30 °FLow level haze.26 mph55%28.91 "HgN/A
5:30 pm30 °FLow level haze.24 mph55%28.88 "HgN/A
5:00 pm30 °FLow level haze.31 mph59%28.88 "Hg6 mi
4:30 pm30 °FLow level haze.26 mph59%28.88 "HgN/A
4:00 pm28 °FLow level haze.31 mph69%28.85 "Hg4 mi
3:30 pm30 °FLow level haze.29 mph55%28.85 "Hg6 mi
3:00 pm30 °FLow level haze.33 mph55%28.85 "Hg3 mi
Weather by CustomWeather, © 2017

See weather overviewHow to use our weather pages